owner,sensor,date,latitude,longitude,vertical_datum,direction_of_sea_water_velocity,sea_water_speed,upward_sea_water_velocity,qcFlag 
ADCP,ioos:station:wmo:42377:1,2008-09-01T00:02:00Z,27.2930,-90.9680,21.3,90.0,4.8,-9999.0,'11133222,11111222,99999999' 
ADCP,ioos:station:wmo:42377:1,2008-09-01T00:22:00Z,27.2930,-90.9680,21.3,118.0,4.3,-9999.0,'11133222,11111222,99999999' 
ADCP,ioos:station:wmo:42377:1,2008-09-01T00:42:00Z,27.2930,-90.9680,21.3,239.0,4.8,-9999.0,'11133222,11111222,99999999' 
ADCP,ioos:station:wmo:42377:1,2008-09-01T01:02:00Z,27.2930,-90.9680,21.3,185.0,5.0,-9999.0,'11133222,11111222,99999999' 
ADCP,ioos:station:wmo:42377:1,2008-09-01T01:22:00Z,27.2930,-90.9680,21.3,85.0,6.6,-9999.0,'11133222,11111222,99999999' 
ADCP,ioos:station:wmo:42377:1,2008-09-01T01:42:00Z,27.2930,-90.9680,21.3,93.0,9.5,-9999.0,'11133222,11111222,99999999' 
ADCP,ioos:station:wmo:42377:1,2008-09-01T02:02:00Z,27.2930,-90.9680,21.3,90.0,12.8,-9999.0,'11111222,11111222,99999999' 
ADCP,ioos:station:wmo:42377:1,2008-09-01T02:22:00Z,27.2930,-90.9680,21.3,86.0,16.5,-9999.0,'11111222,11111222,99999999' 
ADCP,ioos:station:wmo:42377:1,2008-09-01T02:42:00Z,27.2930,-90.9680,21.3,89.0,18.3,-9999.0,'11111222,11111222,99999999' 
ADCP,ioos:station:wmo:42377:1,2008-09-01T03:02:00Z,27.2930,-90.9680,21.3,100.0,15.6,-9999.0,'11111222,11111222,99999999' 
ADCP,ioos:station:wmo:42377:1,2008-09-01T03:22:00Z,27.2930,-90.9680,21.3,91.0,13.6,-9999.0,'11111222,11111222,99999999' 
ADCP,ioos:station:wmo:42377:1,2008-09-01T03:42:00Z,27.2930,-90.9680,21.3,92.0,12.3,-9999.0,'11111222,11111222,99999999' 
ADCP,ioos:station:wmo:42377:1,2008-09-01T04:02:00Z,27.2930,-90.9680,21.3,109.0,10.1,-9999.0,'11111222,11111222,99999999' 
ADCP,ioos:station:wmo:42377:1,2008-09-01T04:22:00Z,27.2930,-90.9680,21.3,126.0,8.6,-9999.0,'11133222,11111222,99999999' 
ADCP,ioos:station:wmo:42377:1,2008-09-01T04:42:00Z,27.2930,-90.9680,21.3,147.0,9.1,-9999.0,'11133222,11111222,99999999' 
ADCP,ioos:station:wmo:42377:1,2008-09-01T05:02:00Z,27.2930,-90.9680,21.3,153.0,8.3,-9999.0,'11133222,11111222,99999999' 
ADCP,ioos:station:wmo:42377:1,2008-09-01T05:22:00Z,27.2930,-90.9680,21.3,154.0,9.8,-9999.0,'11133222,11111222,99999999' 
ADCP,ioos:station:wmo:42377:1,2008-09-01T05:42:00Z,27.2930,-90.9680,21.3,152.0,10.4,-9999.0,'11111222,11111222,99999999' 
ADCP,ioos:station:wmo:42377:1,2008-09-01T06:02:00Z,27.2930,-90.9680,21.3,147.0,12.5,-9999.0,'11111222,11111222,99999999' 
ADCP,ioos:station:wmo:42377:1,2008-09-01T06:22:00Z,27.2930,-90.9680,21.3,142.0,14.0,-9999.0,'11111222,11111222,99999999' 
ADCP,ioos:station:wmo:42377:1,2008-09-01T06:42:00Z,27.2930,-90.9680,21.3,136.0,14.9,-9999.0,'11111222,11111222,99999999' 
ADCP,ioos:station:wmo:42377:1,2008-09-01T07:02:00Z,27.2930,-90.9680,21.3,135.0,15.6,-9999.0,'11111222,11111222,99999999' 
ADCP,ioos:station:wmo:42377:1,2008-09-01T07:22:00Z,27.2930,-90.9680,21.3,136.0,15.1,-9999.0,'11111222,11111222,99999999' 
ADCP,ioos:station:wmo:42377:1,2008-09-01T07:42:00Z,27.2930,-90.9680,21.3,148.0,14.9,-9999.0,'11111222,11111222,99999999' 
ADCP,ioos:station:wmo:42377:1,2008-09-01T08:02:00Z,27.2930,-90.9680,21.3,127.0,14.9,-9999.0,'11111222,11111222,99999999' 
ADCP,ioos:station:wmo:42377:1,2008-09-01T08:22:00Z,27.2930,-90.9680,21.3,126.0,14.5,-9999.0,'11111222,11111222,99999999' 
ADCP,ioos:station:wmo:42377:1,2008-09-01T08:42:00Z,27.2930,-90.9680,21.3,103.0,20.5,-9999.0,'11111222,11111222,99999999' 
ADCP,ioos:station:wmo:42377:1,2008-09-01T09:02:00Z,27.2930,-90.9680,21.3,117.0,18.7,-9999.0,'11111222,11111222,99999999' 
ADCP,ioos:station:wmo:42377:1,2008-09-01T09:22:00Z,27.2930,-90.9680,21.3,114.0,19.8,-9999.0,'11111222,11111222,99999999' 
ADCP,ioos:station:wmo:42377:1,2008-09-01T09:42:00Z,27.2930,-90.9680,21.3,109.0,21.4,-9999.0,'11111222,11111222,99999999' 
ADCP,ioos:station:wmo:42377:1,2008-09-01T10:02:00Z,27.2930,-90.9680,21.3,104.0,24.4,-9999.0,'11111222,11111222,99999999' 
ADCP,ioos:station:wmo:42377:1,2008-09-01T10:22:00Z,27.2930,-90.9680,21.3,111.0,21.0,-9999.0,'11111222,11111222,99999999' 
ADCP,ioos:station:wmo:42377:1,2008-09-01T10:42:00Z,27.2930,-90.9680,21.3,105.0,26.9,-9999.0,'11111222,11111222,99999999' 
ADCP,ioos:station:wmo:42377:1,2008-09-01T11:02:00Z,27.2930,-90.9680,21.3,105.0,30.8,-9999.0,'11111222,11111222,99999999' 
ADCP,ioos:station:wmo:42377:1,2008-09-01T11:22:00Z,27.2930,-90.9680,21.3,112.0,31.5,-9999.0,'11111222,11111222,99999999' 
ADCP,ioos:station:wmo:42377:1,2008-09-01T11:42:00Z,27.2930,-90.9680,21.3,110.0,38.2,-9999.0,'11111222,11111222,99999999' 
ADCP,ioos:station:wmo:42377:1,2008-09-01T12:02:00Z,27.2930,-90.9680,21.3,107.0,37.3,-9999.0,'11111222,11111222,99999999' 
ADCP,ioos:station:wmo:42377:1,2008-09-01T12:22:00Z,27.2930,-90.9680,21.3,105.0,35.1,-9999.0,'11111222,11111222,99999999' 
ADCP,ioos:station:wmo:42377:1,2008-09-01T12:42:00Z,27.2930,-90.9680,21.3,110.0,32.7,-9999.0,'11111222,11111222,99999999' 
ADCP,ioos:station:wmo:42377:1,2008-09-01T13:02:00Z,27.2930,-90.9680,21.3,109.0,33.3,-9999.0,'11111222,11111222,99999999' 
ADCP,ioos:station:wmo:42377:1,2008-09-01T13:22:00Z,27.2930,-90.9680,21.3,113.0,32.9,-9999.0,'11111222,11111222,99999999' 
ADCP,ioos:station:wmo:42377:1,2008-09-01T13:42:00Z,27.2930,-90.9680,21.3,124.0,31.1,-9999.0,'11111222,11111222,99999999' 
ADCP,ioos:station:wmo:42377:1,2008-09-01T14:02:00Z,27.2930,-90.9680,21.3,124.0,30.4,-9999.0,'11111222,11111222,99999999' 
ADCP,ioos:station:wmo:42377:1,2008-09-01T14:22:00Z,27.2930,-90.9680,21.3,118.0,30.1,-9999.0,'11111222,11111222,99999999' 
ADCP,ioos:station:wmo:42377:1,2008-09-01T14:42:00Z,27.2930,-90.9680,21.3,126.0,29.1,-9999.0,'11111222,11111222,99999999' 
ADCP,ioos:station:wmo:42377:1,2008-09-01T15:02:00Z,27.2930,-90.9680,21.3,126.0,28.4,-9999.0,'11111222,11111222,99999999' 
ADCP,ioos:station:wmo:42377:1,2008-09-01T15:22:00Z,27.2930,-90.9680,21.3,122.0,28.7,-9999.0,'11111222,11111222,99999999' 
ADCP,ioos:station:wmo:42377:1,2008-09-01T15:42:00Z,27.2930,-90.9680,21.3,125.0,25.1,-9999.0,'11111222,11111222,99999999' 
ADCP,ioos:station:wmo:42377:1,2008-09-01T16:02:00Z,27.2930,-90.9680,21.3,122.0,25.7,-9999.0,'11111222,11111222,99999999' 
ADCP,ioos:station:wmo:42377:1,2008-09-01T16:22:00Z,27.2930,-90.9680,21.3,124.0,24.7,-9999.0,'11111222,11111222,99999999' 
ADCP,ioos:station:wmo:42377:1,2008-09-01T16:42:00Z,27.2930,-90.9680,21.3,125.0,24.7,-9999.0,'11111222,11111222,99999999' 
ADCP,ioos:station:wmo:42377:1,2008-09-01T17:02:00Z,27.2930,-90.9680,21.3,125.0,26.1,-9999.0,'11111222,11111222,99999999' 
ADCP,ioos:station:wmo:42377:1,2008-09-01T17:22:00Z,27.2930,-90.9680,21.3,123.0,26.2,-9999.0,'11111222,11111222,99999999' 
ADCP,ioos:station:wmo:42377:1,2008-09-01T17:42:00Z,27.2930,-90.9680,21.3,121.0,26.5,-9999.0,'11111222,11111222,99999999' 
ADCP,ioos:station:wmo:42377:1,2008-09-01T18:02:00Z,27.2930,-90.9680,21.3,127.0,26.1,-9999.0,'11111222,11111222,99999999' 
ADCP,ioos:station:wmo:42377:1,2008-09-01T18:22:00Z,27.2930,-90.9680,21.3,120.0,27.3,-9999.0,'11111222,11111222,99999999' 
ADCP,ioos:station:wmo:42377:1,2008-09-01T18:42:00Z,27.2930,-90.9680,21.3,121.0,24.7,-9999.0,'11111222,11111222,99999999' 
ADCP,ioos:station:wmo:42377:1,2008-09-01T19:02:00Z,27.2930,-90.9680,21.3,121.0,23.0,-9999.0,'11111222,11111222,99999999' 
ADCP,ioos:station:wmo:42377:1,2008-09-01T19:22:00Z,27.2930,-90.9680,21.3,118.0,25.1,-9999.0,'11111222,11111222,99999999' 
ADCP,ioos:station:wmo:42377:1,2008-09-01T19:42:00Z,27.2930,-90.9680,21.3,117.0,26.7,-9999.0,'11111222,11111222,99999999' 
ADCP,ioos:station:wmo:42377:1,2008-09-01T20:02:00Z,27.2930,-90.9680,21.3,110.0,27.7,-9999.0,'11111222,11111222,99999999' 
ADCP,ioos:station:wmo:42377:1,2008-09-01T20:22:00Z,27.2930,-90.9680,21.3,112.0,29.2,-9999.0,'11111222,11111222,99999999' 
ADCP,ioos:station:wmo:42377:1,2008-09-01T20:42:00Z,27.2930,-90.9680,21.3,112.0,30.0,-9999.0,'11111222,11111222,99999999' 
ADCP,ioos:station:wmo:42377:1,2008-09-01T21:02:00Z,27.2930,-90.9680,21.3,115.0,32.3,-9999.0,'11111222,11111222,99999999' 
ADCP,ioos:station:wmo:42377:1,2008-09-01T21:22:00Z,27.2930,-90.9680,21.3,110.0,35.1,-9999.0,'11111222,11111222,99999999' 
ADCP,ioos:station:wmo:42377:1,2008-09-01T21:42:00Z,27.2930,-90.9680,21.3,109.0,38.0,-9999.0,'11111222,11111222,99999999' 
ADCP,ioos:station:wmo:42377:1,2008-09-01T22:02:00Z,27.2930,-90.9680,21.3,108.0,39.5,-9999.0,'11111222,11111222,99999999' 
ADCP,ioos:station:wmo:42377:1,2008-09-01T22:22:00Z,27.2930,-90.9680,21.3,110.0,36.9,-9999.0,'11111222,11111222,99999999' 
ADCP,ioos:station:wmo:42377:1,2008-09-01T22:42:00Z,27.2930,-90.9680,21.3,122.0,31.7,-9999.0,'11111222,11111222,99999999' 
ADCP,ioos:station:wmo:42377:1,2008-09-01T23:02:00Z,27.2930,-90.9680,21.3,124.0,27.9,-9999.0,'11111222,11111222,99999999' 
ADCP,ioos:station:wmo:42377:1,2008-09-01T23:22:00Z,27.2930,-90.9680,21.3,125.0,26.1,-9999.0,'11111222,11111222,99999999' 
ADCP,ioos:station:wmo:42377:1,2008-09-01T23:42:00Z,27.2930,-90.9680,21.3,121.0,26.2,-9999.0,'11111222,11111222,99999999' 
ADCP,ioos:station:wmo:42377:1,2008-09-02T00:02:00Z,27.2930,-90.9680,21.3,128.0,25.2,-9999.0,'11111222,11111222,99999999' 
ADCP,ioos:station:wmo:42377:1,2008-09-02T00:22:00Z,27.2930,-90.9680,21.3,121.0,27.2,-9999.0,'11111222,11111222,99999999' 
ADCP,ioos:station:wmo:42377:1,2008-09-02T00:42:00Z,27.2930,-90.9680,21.3,127.0,24.7,-9999.0,'11111222,11111222,99999999' 
ADCP,ioos:station:wmo:42377:1,2008-09-02T01:02:00Z,27.2930,-90.9680,21.3,120.0,23.9,-9999.0,'11111222,11111222,99999999' 
ADCP,ioos:station:wmo:42377:1,2008-09-02T01:22:00Z,27.2930,-90.9680,21.3,122.0,22.6,-9999.0,'11111222,11111222,99999999' 
ADCP,ioos:station:wmo:42377:1,2008-09-02T01:42:00Z,27.2930,-90.9680,21.3,124.0,23.4,-9999.0,'11111222,11111222,99999999' 
ADCP,ioos:station:wmo:42377:1,2008-09-02T02:02:00Z,27.2930,-90.9680,21.3,119.0,23.9,-9999.0,'11111222,11111222,99999999' 
ADCP,ioos:station:wmo:42377:1,2008-09-02T02:22:00Z,27.2930,-90.9680,21.3,113.0,20.6,-9999.0,'11111222,11111222,99999999' 
ADCP,ioos:station:wmo:42377:1,2008-09-02T02:42:00Z,27.2930,-90.9680,21.3,116.0,18.8,-9999.0,'11111222,11111222,99999999' 
ADCP,ioos:station:wmo:42377:1,2008-09-02T03:02:00Z,27.2930,-90.9680,21.3,119.0,17.5,-9999.0,'11111222,11111222,99999999' 
ADCP,ioos:station:wmo:42377:1,2008-09-02T03:22:00Z,27.2930,-90.9680,21.3,134.0,14.9,-9999.0,'11111222,11111222,99999999' 
ADCP,ioos:station:wmo:42377:1,2008-09-02T03:42:00Z,27.2930,-90.9680,21.3,142.0,15.2,-9999.0,'11111222,11111222,99999999' 
ADCP,ioos:station:wmo:42377:1,2008-09-02T04:02:00Z,27.2930,-90.9680,21.3,141.0,14.6,-9999.0,'11111222,11111222,99999999' 
ADCP,ioos:station:wmo:42377:1,2008-09-02T04:22:00Z,27.2930,-90.9680,21.3,134.0,14.2,-9999.0,'11111222,11111222,99999999' 
ADCP,ioos:station:wmo:42377:1,2008-09-02T04:42:00Z,27.2930,-90.9680,21.3,135.0,13.3,-9999.0,'11111222,11111222,99999999' 
ADCP,ioos:station:wmo:42377:1,2008-09-02T05:02:00Z,27.2930,-90.9680,21.3,118.0,14.1,-9999.0,'11111222,11111222,99999999' 
ADCP,ioos:station:wmo:42377:1,2008-09-02T05:22:00Z,27.2930,-90.9680,21.3,126.0,13.8,-9999.0,'11111222,11111222,99999999' 
ADCP,ioos:station:wmo:42377:1,2008-09-02T05:42:00Z,27.2930,-90.9680,21.3,124.0,14.0,-9999.0,'11111222,11111222,99999999' 
ADCP,ioos:station:wmo:42377:1,2008-09-02T06:02:00Z,27.2930,-90.9680,21.3,126.0,12.9,-9999.0,'11111222,11111222,99999999' 
ADCP,ioos:station:wmo:42377:1,2008-09-02T06:22:00Z,27.2930,-90.9680,21.3,113.0,13.5,-9999.0,'11111222,11111222,99999999' 
ADCP,ioos:station:wmo:42377:1,2008-09-02T06:42:00Z,27.2930,-90.9680,21.3,110.0,14.7,-9999.0,'11111222,11111222,99999999' 
ADCP,ioos:station:wmo:42377:1,2008-09-02T07:02:00Z,27.2930,-90.9680,21.3,119.0,12.7,-9999.0,'11111222,11111222,99999999' 
ADCP,ioos:station:wmo:42377:1,2008-09-02T07:22:00Z,27.2930,-90.9680,21.3,121.0,11.9,-9999.0,'11111222,11111222,99999999' 
ADCP,ioos:station:wmo:42377:1,2008-09-02T07:42:00Z,27.2930,-90.9680,21.3,112.0,13.1,-9999.0,'11111222,11111222,99999999' 
ADCP,ioos:station:wmo:42377:1,2008-09-02T08:02:00Z,27.2930,-90.9680,21.3,118.0,13.1,-9999.0,'11111222,11111222,99999999' 
ADCP,ioos:station:wmo:42377:1,2008-09-02T08:22:00Z,27.2930,-90.9680,21.3,113.0,9.0,-9999.0,'11133222,11111222,99999999' 
ADCP,ioos:station:wmo:42377:1,2008-09-02T08:42:00Z,27.2930,-90.9680,21.3,114.0,9.5,-9999.0,'11133222,11111222,99999999' 
ADCP,ioos:station:wmo:42377:1,2008-09-02T09:02:00Z,27.2930,-90.9680,21.3,111.0,9.1,-9999.0,'11133222,11111222,99999999' 
ADCP,ioos:station:wmo:42377:1,2008-09-02T09:22:00Z,27.2930,-90.9680,21.3,115.0,9.6,-9999.0,'11133222,11111222,99999999' 
ADCP,ioos:station:wmo:42377:1,2008-09-02T09:42:00Z,27.2930,-90.9680,21.3,110.0,6.7,-9999.0,'11133222,11111222,99999999' 
ADCP,ioos:station:wmo:42377:1,2008-09-02T10:02:00Z,27.2930,-90.9680,21.3,122.0,5.8,-9999.0,'11133222,11111222,99999999' 
ADCP,ioos:station:wmo:42377:1,2008-09-02T10:22:00Z,27.2930,-90.9680,21.3,154.0,4.9,-9999.0,'11133222,11111222,99999999' 
ADCP,ioos:station:wmo:42377:1,2008-09-02T10:42:00Z,27.2930,-90.9680,21.3,112.0,7.9,-9999.0,'11133222,11111222,99999999' 
ADCP,ioos:station:wmo:42377:1,2008-09-02T11:02:00Z,27.2930,-90.9680,21.3,96.0,12.4,-9999.0,'11111222,11111222,99999999' 
ADCP,ioos:station:wmo:42377:1,2008-09-02T11:22:00Z,27.2930,-90.9680,21.3,100.0,14.6,-9999.0,'11111222,11111222,99999999' 
ADCP,ioos:station:wmo:42377:1,2008-09-02T11:42:00Z,27.2930,-90.9680,21.3,97.0,16.8,-9999.0,'11111222,11111222,99999999' 
ADCP,ioos:station:wmo:42377:1,2008-09-02T12:02:00Z,27.2930,-90.9680,21.3,100.0,18.1,-9999.0,'11111222,11111222,99999999' 
ADCP,ioos:station:wmo:42377:1,2008-09-02T12:22:00Z,27.2930,-90.9680,21.3,101.0,17.2,-9999.0,'11111222,11111222,99999999' 
ADCP,ioos:station:wmo:42377:1,2008-09-02T12:42:00Z,27.2930,-90.9680,21.3,107.0,17.3,-9999.0,'11111222,11111222,99999999' 
ADCP,ioos:station:wmo:42377:1,2008-09-02T13:02:00Z,27.2930,-90.9680,21.3,112.0,16.7,-9999.0,'11111222,11111222,99999999' 
ADCP,ioos:station:wmo:42377:1,2008-09-02T13:22:00Z,27.2930,-90.9680,21.3,126.0,17.2,-9999.0,'11111222,11111222,99999999' 
ADCP,ioos:station:wmo:42377:1,2008-09-02T13:42:00Z,27.2930,-90.9680,21.3,130.0,15.8,-9999.0,'11111222,11111222,99999999' 
ADCP,ioos:station:wmo:42377:1,2008-09-02T14:02:00Z,27.2930,-90.9680,21.3,123.0,16.2,-9999.0,'11111222,11111222,99999999' 
ADCP,ioos:station:wmo:42377:1,2008-09-02T14:22:00Z,27.2930,-90.9680,21.3,137.0,14.7,-9999.0,'11111222,11111222,99999999' 
ADCP,ioos:station:wmo:42377:1,2008-09-02T14:42:00Z,27.2930,-90.9680,21.3,145.0,13.9,-9999.0,'11111222,11111222,99999999' 
ADCP,ioos:station:wmo:42377:1,2008-09-02T15:02:00Z,27.2930,-90.9680,21.3,170.0,14.2,-9999.0,'11111222,11111222,99999999' 
ADCP,ioos:station:wmo:42377:1,2008-09-02T15:22:00Z,27.2930,-90.9680,21.3,167.0,13.8,-9999.0,'11111222,11111222,99999999' 
ADCP,ioos:station:wmo:42377:1,2008-09-02T15:42:00Z,27.2930,-90.9680,21.3,169.0,12.6,-9999.0,'11111222,11111222,99999999' 
ADCP,ioos:station:wmo:42377:1,2008-09-02T16:02:00Z,27.2930,-90.9680,21.3,157.0,12.0,-9999.0,'11111222,11111222,99999999' 
ADCP,ioos:station:wmo:42377:1,2008-09-02T16:22:00Z,27.2930,-90.9680,21.3,172.0,11.8,-9999.0,'11111222,11111222,99999999' 
ADCP,ioos:station:wmo:42377:1,2008-09-02T16:42:00Z,27.2930,-90.9680,21.3,173.0,12.5,-9999.0,'11111222,11111222,99999999' 
ADCP,ioos:station:wmo:42377:1,2008-09-02T17:02:00Z,27.2930,-90.9680,21.3,163.0,11.6,-9999.0,'11111222,11111222,99999999' 
ADCP,ioos:station:wmo:42377:1,2008-09-02T17:22:00Z,27.2930,-90.9680,21.3,163.0,11.7,-9999.0,'11111222,11111222,99999999' 
ADCP,ioos:station:wmo:42377:1,2008-09-02T17:42:00Z,27.2930,-90.9680,21.3,144.0,14.0,-9999.0,'11111222,11111222,99999999' 
ADCP,ioos:station:wmo:42377:1,2008-09-02T18:02:00Z,27.2930,-90.9680,21.3,126.0,17.7,-9999.0,'11111222,11111222,99999999' 
ADCP,ioos:station:wmo:42377:1,2008-09-02T18:22:00Z,27.2930,-90.9680,21.3,132.0,15.7,-9999.0,'11111222,11111222,99999999' 
ADCP,ioos:station:wmo:42377:1,2008-09-02T18:42:00Z,27.2930,-90.9680,21.3,131.0,16.2,-9999.0,'11111222,11111222,99999999' 
ADCP,ioos:station:wmo:42377:1,2008-09-02T19:02:00Z,27.2930,-90.9680,21.3,126.0,20.1,-9999.0,'11111222,11111222,99999999' 
ADCP,ioos:station:wmo:42377:1,2008-09-02T19:22:00Z,27.2930,-90.9680,21.3,128.0,20.4,-9999.0,'11111222,11111222,99999999' 
ADCP,ioos:station:wmo:42377:1,2008-09-02T19:42:00Z,27.2930,-90.9680,21.3,126.0,19.4,-9999.0,'11111222,11111222,99999999' 
ADCP,ioos:station:wmo:42377:1,2008-09-02T20:02:00Z,27.2930,-90.9680,21.3,128.0,18.8,-9999.0,'11111222,11111222,99999999' 
ADCP,ioos:station:wmo:42377:1,2008-09-02T20:22:00Z,27.2930,-90.9680,21.3,126.0,22.1,-9999.0,'11111222,11111222,99999999' 
ADCP,ioos:station:wmo:42377:1,2008-09-02T20:42:00Z,27.2930,-90.9680,21.3,130.0,25.8,-9999.0,'11111222,11111222,99999999' 
ADCP,ioos:station:wmo:42377:1,2008-09-02T21:02:00Z,27.2930,-90.9680,21.3,138.0,22.9,-9999.0,'11111222,11111222,99999999' 
ADCP,ioos:station:wmo:42377:1,2008-09-02T21:22:00Z,27.2930,-90.9680,21.3,131.0,24.0,-9999.0,'11111222,11111222,99999999' 
ADCP,ioos:station:wmo:42377:1,2008-09-02T21:42:00Z,27.2930,-90.9680,21.3,129.0,26.5,-9999.0,'11111222,11111222,99999999' 
ADCP,ioos:station:wmo:42377:1,2008-09-02T22:02:00Z,27.2930,-90.9680,21.3,136.0,27.0,-9999.0,'11111222,11111222,99999999' 
ADCP,ioos:station:wmo:42377:1,2008-09-02T22:22:00Z,27.2930,-90.9680,21.3,132.0,26.0,-9999.0,'11111222,11111222,99999999' 
ADCP,ioos:station:wmo:42377:1,2008-09-02T22:42:00Z,27.2930,-90.9680,21.3,130.0,22.9,-9999.0,'11111222,11111222,99999999' 
ADCP,ioos:station:wmo:42377:1,2008-09-02T23:02:00Z,27.2930,-90.9680,21.3,136.0,19.4,-9999.0,'11111222,11111222,99999999' 
ADCP,ioos:station:wmo:42377:1,2008-09-02T23:22:00Z,27.2930,-90.9680,21.3,130.0,17.6,-9999.0,'11111222,11111222,99999999' 
ADCP,ioos:station:wmo:42377:1,2008-09-02T23:42:00Z,27.2930,-90.9680,21.3,147.0,18.9,-9999.0,'11111222,11111222,99999999' 
ADCP,ioos:station:wmo:42377:1,2008-09-03T00:02:00Z,27.2930,-90.9680,21.3,142.0,24.0,-9999.0,'11111222,11111222,99999999' 
ADCP,ioos:station:wmo:42377:1,2008-09-03T00:22:00Z,27.2930,-90.9680,21.3,133.0,22.3,-9999.0,'11111222,11111222,99999999' 
ADCP,ioos:station:wmo:42377:1,2008-09-03T00:42:00Z,27.2930,-90.9680,21.3,136.0,23.1,-9999.0,'11111222,11111222,99999999' 
ADCP,ioos:station:wmo:42377:1,2008-09-03T01:02:00Z,27.2930,-90.9680,21.3,134.0,21.4,-9999.0,'11111222,11111222,99999999' 
ADCP,ioos:station:wmo:42377:1,2008-09-03T01:22:00Z,27.2930,-90.9680,21.3,139.0,21.1,-9999.0,'11111222,11111222,99999999' 
ADCP,ioos:station:wmo:42377:1,2008-09-03T01:42:00Z,27.2930,-90.9680,21.3,129.0,18.1,-9999.0,'11111222,11111222,99999999' 
ADCP,ioos:station:wmo:42377:1,2008-09-03T02:02:00Z,27.2930,-90.9680,21.3,181.0,15.6,-9999.0,'11111222,11111222,99999999' 
ADCP,ioos:station:wmo:42377:1,2008-09-03T02:22:00Z,27.2930,-90.9680,21.3,202.0,18.9,-9999.0,'11111222,11111222,99999999' 
ADCP,ioos:station:wmo:42377:1,2008-09-03T02:42:00Z,27.2930,-90.9680,21.3,131.0,21.0,-9999.0,'11111222,11111222,99999999' 
ADCP,ioos:station:wmo:42377:1,2008-09-03T03:02:00Z,27.2930,-90.9680,21.3,139.0,18.3,-9999.0,'11111222,11111222,99999999' 
ADCP,ioos:station:wmo:42377:1,2008-09-03T03:22:00Z,27.2930,-90.9680,21.3,171.0,15.3,-9999.0,'11111222,11111222,99999999' 
ADCP,ioos:station:wmo:42377:1,2008-09-03T03:42:00Z,27.2930,-90.9680,21.3,163.0,10.3,-9999.0,'11111222,11111222,99999999' 
ADCP,ioos:station:wmo:42377:1,2008-09-03T04:02:00Z,27.2930,-90.9680,21.3,178.0,13.8,-9999.0,'11111222,11111222,99999999' 
ADCP,ioos:station:wmo:42377:1,2008-09-03T04:22:00Z,27.2930,-90.9680,21.3,126.0,16.5,-9999.0,'11111222,11111222,99999999' 
ADCP,ioos:station:wmo:42377:1,2008-09-03T04:42:00Z,27.2930,-90.9680,21.3,120.0,15.8,-9999.0,'11111222,11111222,99999999' 
ADCP,ioos:station:wmo:42377:1,2008-09-03T05:02:00Z,27.2930,-90.9680,21.3,118.0,17.9,-9999.0,'11111222,11111222,99999999' 
ADCP,ioos:station:wmo:42377:1,2008-09-03T05:22:00Z,27.2930,-90.9680,21.3,114.0,16.1,-9999.0,'11111222,11111222,99999999' 
ADCP,ioos:station:wmo:42377:1,2008-09-03T05:42:00Z,27.2930,-90.9680,21.3,114.0,17.7,-9999.0,'11111222,11111222,99999999' 
ADCP,ioos:station:wmo:42377:1,2008-09-03T06:02:00Z,27.2930,-90.9680,21.3,149.0,13.4,-9999.0,'11111222,11111222,99999999' 
ADCP,ioos:station:wmo:42377:1,2008-09-03T06:22:00Z,27.2930,-90.9680,21.3,103.0,18.1,-9999.0,'11111222,11111222,99999999' 
ADCP,ioos:station:wmo:42377:1,2008-09-03T06:42:00Z,27.2930,-90.9680,21.3,116.0,16.5,-9999.0,'11111222,11111222,99999999' 
ADCP,ioos:station:wmo:42377:1,2008-09-03T07:02:00Z,27.2930,-90.9680,21.3,126.0,10.6,-9999.0,'11111222,11111222,99999999' 
ADCP,ioos:station:wmo:42377:1,2008-09-03T07:22:00Z,27.2930,-90.9680,21.3,118.0,12.5,-9999.0,'11111222,11111222,99999999' 
ADCP,ioos:station:wmo:42377:1,2008-09-03T07:42:00Z,27.2930,-90.9680,21.3,145.0,14.0,-9999.0,'11111222,11111222,99999999' 
ADCP,ioos:station:wmo:42377:1,2008-09-03T08:02:00Z,27.2930,-90.9680,21.3,148.0,14.1,-9999.0,'11111222,11111222,99999999' 
ADCP,ioos:station:wmo:42377:1,2008-09-03T08:22:00Z,27.2930,-90.9680,21.3,153.0,10.0,-9999.0,'11111222,11111222,99999999' 
ADCP,ioos:station:wmo:42377:1,2008-09-03T08:42:00Z,27.2930,-90.9680,21.3,124.0,10.8,-9999.0,'11111222,11111222,99999999' 
ADCP,ioos:station:wmo:42377:1,2008-09-03T09:02:00Z,27.2930,-90.9680,21.3,125.0,10.2,-9999.0,'11111222,11111222,99999999' 
ADCP,ioos:station:wmo:42377:1,2008-09-03T09:22:00Z,27.2930,-90.9680,21.3,128.0,9.0,-9999.0,'11133222,11111222,99999999' 
ADCP,ioos:station:wmo:42377:1,2008-09-03T09:42:00Z,27.2930,-90.9680,21.3,111.0,7.2,-9999.0,'11133222,11111222,99999999' 
ADCP,ioos:station:wmo:42377:1,2008-09-03T10:02:00Z,27.2930,-90.9680,21.3,168.0,3.8,-9999.0,'11133222,11111222,99999999' 
ADCP,ioos:station:wmo:42377:1,2008-09-03T10:22:00Z,27.2930,-90.9680,21.3,117.0,7.4,-9999.0,'11133222,11111222,99999999' 
ADCP,ioos:station:wmo:42377:1,2008-09-03T10:42:00Z,27.2930,-90.9680,21.3,113.0,9.1,-9999.0,'11133222,11111222,99999999' 
ADCP,ioos:station:wmo:42377:1,2008-09-03T11:02:00Z,27.2930,-90.9680,21.3,136.0,6.5,-9999.0,'11133222,11111222,99999999' 
ADCP,ioos:station:wmo:42377:1,2008-09-03T11:22:00Z,27.2930,-90.9680,21.3,117.0,5.9,-9999.0,'11133222,11111222,99999999' 
ADCP,ioos:station:wmo:42377:1,2008-09-03T11:42:00Z,27.2930,-90.9680,21.3,113.0,5.8,-9999.0,'11133222,11111222,99999999' 
ADCP,ioos:station:wmo:42377:1,2008-09-03T12:02:00Z,27.2930,-90.9680,21.3,162.0,6.3,-9999.0,'11133222,11111222,99999999' 
ADCP,ioos:station:wmo:42377:1,2008-09-03T12:22:00Z,27.2930,-90.9680,21.3,109.0,6.5,-9999.0,'11133222,11111222,99999999' 
ADCP,ioos:station:wmo:42377:1,2008-09-03T12:42:00Z,27.2930,-90.9680,21.3,211.0,8.1,-9999.0,'11133222,11111222,99999999' 
ADCP,ioos:station:wmo:42377:1,2008-09-03T13:02:00Z,27.2930,-90.9680,21.3,159.0,7.5,-9999.0,'11133222,11111222,99999999' 
ADCP,ioos:station:wmo:42377:1,2008-09-03T13:22:00Z,27.2930,-90.9680,21.3,86.0,8.0,-9999.0,'11133222,11111222,99999999' 
ADCP,ioos:station:wmo:42377:1,2008-09-03T13:42:00Z,27.2930,-90.9680,21.3,61.0,3.1,-9999.0,'11133222,11111222,99999999' 
ADCP,ioos:station:wmo:42377:1,2008-09-03T14:02:00Z,27.2930,-90.9680,21.3,81.0,3.3,-9999.0,'11133222,11111222,99999999' 
ADCP,ioos:station:wmo:42377:1,2008-09-03T14:22:00Z,27.2930,-90.9680,21.3,5.0,2.3,-9999.0,'11133222,11111222,99999999' 
ADCP,ioos:station:wmo:42377:1,2008-09-03T14:42:00Z,27.2930,-90.9680,21.3,6.0,2.7,-9999.0,'11133222,11111222,99999999' 
ADCP,ioos:station:wmo:42377:1,2008-09-03T15:02:00Z,27.2930,-90.9680,21.3,346.0,4.9,-9999.0,'11133222,11111222,99999999' 
ADCP,ioos:station:wmo:42377:1,2008-09-03T15:22:00Z,27.2930,-90.9680,21.3,352.0,8.8,-9999.0,'11133222,11111222,99999999' 
ADCP,ioos:station:wmo:42377:1,2008-09-03T15:42:00Z,27.2930,-90.9680,21.3,13.0,9.4,-9999.0,'11133222,11111222,99999999' 
ADCP,ioos:station:wmo:42377:1,2008-09-03T16:02:00Z,27.2930,-90.9680,21.3,12.0,12.1,-9999.0,'11111222,11111222,99999999' 
ADCP,ioos:station:wmo:42377:1,2008-09-03T16:22:00Z,27.2930,-90.9680,21.3,15.0,11.8,-9999.0,'11111222,11111222,99999999' 
ADCP,ioos:station:wmo:42377:1,2008-09-03T16:42:00Z,27.2930,-90.9680,21.3,33.0,12.1,-9999.0,'11111222,11111222,99999999' 
ADCP,ioos:station:wmo:42377:1,2008-09-03T17:02:00Z,27.2930,-90.9680,21.3,36.0,14.7,-9999.0,'11111222,11111222,99999999' 